YH8VA-1 Weather Reports


time (UTC)temp
C
wind
direction
speed
KPH
gust
KPH
rain 1hr
cm
rain 24hr
cm
rain mn
cm
humidity
%
barometer
mb
20260507181632 32 0 0.0 0.0 0.00 0.00 0.00 61 998.0
20260507181110 31 0 0.0 0.0 0.00 0.00 0.00 61 998.0
20260507180548 31 0 0.0 0.0 0.00 0.00 0.00 63 998.0
20260507180026 32 0 0.0 0.0 0.00 0.00 0.00 60 998.0
20260507175504 32 0 0.0 0.0 0.00 0.00 0.00 60 998.0
20260507174942 32 0 0.0 0.0 0.00 0.00 0.00 61 998.0
20260507174420 32 0 0.0 0.0 0.00 0.00 0.00 60 998.0
20260507173858 32 0 0.0 0.0 0.00 0.00 0.00 60 998.0
20260507173336 32 0 0.0 0.0 0.00 0.00 0.00 60 998.0
20260507172814 32 0 0.0 0.0 0.00 0.00 0.00 60 998.0
20260507172252 32 0 0.0 0.0 0.00 0.00 0.00 61 998.0
20260507171730 32 0 0.0 0.0 0.00 0.00 0.00 61 998.0
20260507171208 32 0 0.0 0.0 0.00 0.00 0.00 60 998.0
20260507170646 32 0 0.0 0.0 0.00 0.00 0.00 60 998.0
20260507170124 32 0 0.0 0.0 0.00 0.00 0.00 60 998.0
20260507165602 32 0 0.0 0.0 0.00 0.00 0.00 60 998.0
20260507165040 32 0 0.0 0.0 0.00 0.00 0.00 61 998.0
20260507164518 32 0 0.0 0.0 0.00 0.00 0.00 61 998.0
20260507163956 32 0 0.0 0.0 0.00 0.00 0.00 61 998.0
20260507163434 32 0 0.0 0.0 0.00 0.00 0.00 61 998.0
20260507162912 32 0 0.0 0.0 0.00 0.00 0.00 61 998.0
20260507162350 32 0 0.0 0.0 0.00 0.00 0.00 61 998.0
20260507155205 32 0 0.0 0.0 0.00 0.00 0.00 60 999.0
20260507154643 32 0 0.0 0.0 0.00 0.00 0.00 60 999.0
20260507154121 32 0 0.0 0.0 0.00 0.00 0.00 60 999.0
20260507153559 32 0 0.0 0.0 0.00 0.00 0.00 60 999.0
20260507153037 32 0 0.0 0.0 0.00 0.00 0.00 60 999.0
20260507152515 32 0 0.0 0.0 0.00 0.00 0.00 60 999.0
20260507151953 32 0 0.0 0.0 0.00 0.00 0.00 60 999.0
20260507151431 32 0 0.0 0.0 0.00 0.00 0.00 60 999.0
20260507150909 32 0 0.0 0.0 0.00 0.00 0.00 61 999.0
20260507150347 32 0 0.0 0.0 0.00 0.00 0.00 61 999.0
20260507145826 32 0 0.0 0.0 0.00 0.00 0.00 62 999.0
20260507145306 31 0 0.0 0.0 0.00 0.00 0.00 65 999.0
20260507144741 28 0 0.0 0.0 0.00 0.00 0.00 73 999.0
20260507142401 32 0 0.0 0.0 0.00 0.00 0.00 60 999.0
20260507141839 32 0 0.0 0.0 0.00 0.00 0.00 60 999.0
20260507141317 32 0 0.0 0.0 0.00 0.00 0.00 60 999.0
20260507140755 32 0 0.0 0.0 0.00 0.00 0.00 60 999.0
20260507140233 32 0 0.0 0.0 0.00 0.00 0.00 60 999.0
20260507135711 32 0 0.0 0.0 0.00 0.00 0.00 60 999.0
20260507135149 32 0 0.0 0.0 0.00 0.00 0.00 60 999.0
20260507134627 32 0 0.0 0.0 0.00 0.00 0.00 60 999.0
20260507134105 32 0 0.0 0.0 0.00 0.00 0.00 60 999.0
20260507133543 32 0 0.0 0.0 0.00 0.00 0.00 60 999.0
20260507133021 32 0 0.0 0.0 0.00 0.00 0.00 60 999.0
20260507132459 32 0 0.0 0.0 0.00 0.00 0.00 61 999.0
20260507131937 32 0 0.0 0.0 0.00 0.00 0.00 61 999.0
20260507131416 32 0 0.0 0.0 0.00 0.00 0.00 62 999.0
20260507130852 31 0 0.0 0.0 0.00 0.00 0.00 66 999.0
20260507130329 29 0 0.0 0.0 0.00 0.00 0.00 73 999.0
20260507130243 28 0 0.0 0.0 0.00 0.00 0.00 75 999.0
20260507124009 33 0 0.0 0.0 0.00 0.00 0.00 60 999.0
20260507123447 33 0 0.0 0.0 0.00 0.00 0.00 60 999.0
20260507122925 33 0 0.0 0.0 0.00 0.00 0.00 60 999.0
20260507122403 33 0 0.0 0.0 0.00 0.00 0.00 60 999.0
20260507121840 33 0 0.0 0.0 0.00 0.00 0.00 60 999.0
20260507121318 32 0 0.0 0.0 0.00 0.00 0.00 61 999.0
20260507120757 33 0 0.0 0.0 0.00 0.00 0.00 60 999.0
20260507120233 33 0 0.0 0.0 0.00 0.00 0.00 60 999.0
20260507115710 33 0 0.0 0.0 0.00 0.00 0.00 60 999.0
20260507115148 33 0 0.0 0.0 0.00 0.00 0.00 60 999.0
20260507114626 33 0 0.0 0.0 0.00 0.00 0.00 60 999.0
20260507114104 33 0 0.0 0.0 0.00 0.00 0.00 60 999.0
20260507113541 33 0 0.0 0.0 0.00 0.00 0.00 60 999.0
20260507113019 33 0 0.0 0.0 0.00 0.00 0.00 60 999.0
20260507112457 33 0 0.0 0.0 0.00 0.00 0.00 60 999.0
20260507111934 33 0 0.0 0.0 0.00 0.00 0.00 60 999.0
20260507111411 33 0 0.0 0.0 0.00 0.00 0.00 60 999.0
20260507110849 33 0 0.0 0.0 0.00 0.00 0.00 60 999.0
20260507110326 33 0 0.0 0.0 0.00 0.00 0.00 60 999.0
20260507105802 33 0 0.0 0.0 0.00 0.00 0.00 60 999.0
20260507105240 33 0 0.0 0.0 0.00 0.00 0.00 60 999.0
20260507104718 33 0 0.0 0.0 0.00 0.00 0.00 60 999.0
20260507104155 33 0 0.0 0.0 0.00 0.00 0.00 60 999.0
20260507103633 33 0 0.0 0.0 0.00 0.00 0.00 60 998.0
20260507103111 33 0 0.0 0.0 0.00 0.00 0.00 60 998.0
20260507102549 33 0 0.0 0.0 0.00 0.00 0.00 60 998.0
20260507102026 33 0 0.0 0.0 0.00 0.00 0.00 60 998.0
20260507101504 33 0 0.0 0.0 0.00 0.00 0.00 60 998.0
20260507100942 33 0 0.0 0.0 0.00 0.00 0.00 60 998.0
20260507100419 33 0 0.0 0.0 0.00 0.00 0.00 60 998.0
20260507095908 33 0 0.0 0.0 0.00 0.00 0.00 60 998.0
20260507095335 33 0 0.0 0.0 0.00 0.00 0.00 60 998.0
20260507094813 33 0 0.0 0.0 0.00 0.00 0.00 60 998.0
20260507094251 33 0 0.0 0.0 0.00 0.00 0.00 59 998.0
20260507093729 33 0 0.0 0.0 0.00 0.00 0.00 60 998.0
20260507093207 33 0 0.0 0.0 0.00 0.00 0.00 60 997.0
20260507092644 33 0 0.0 0.0 0.00 0.00 0.00 60 997.0
20260507092122 33 0 0.0 0.0 0.00 0.00 0.00 60 997.0
20260507091600 33 0 0.0 0.0 0.00 0.00 0.00 60 997.0
20260507091038 33 0 0.0 0.0 0.00 0.00 0.00 60 997.0
20260507090516 33 0 0.0 0.0 0.00 0.00 0.00 59 997.0
20260507083958 32 0 0.0 0.0 0.00 0.00 0.00 61 997.0
20260507083436 33 0 0.0 0.0 0.00 0.00 0.00 60 997.0
20260507082914 33 0 0.0 0.0 0.00 0.00 0.00 60 997.0
20260507082352 33 0 0.0 0.0 0.00 0.00 0.00 60 997.0
20260507081830 33 0 0.0 0.0 0.00 0.00 0.00 60 997.0
20260507081308 32 0 0.0 0.0 0.00 0.00 0.00 62 997.0
20260507080745 33 0 0.0 0.0 0.00 0.00 0.00 60 997.0
20260507080223 33 0 0.0 0.0 0.00 0.00 0.00 62 997.0
20260507075701 33 0 0.0 0.0 0.00 0.00 0.00 59 997.0
20260507075139 33 0 0.0 0.0 0.00 0.00 0.00 59 997.0
20260507074617 33 0 0.0 0.0 0.00 0.00 0.00 59 997.0
20260507074055 33 0 0.0 0.0 0.00 0.00 0.00 61 997.0
20260507073534 33 0 0.0 0.0 0.00 0.00 0.00 60 997.0
20260507073011 33 0 0.0 0.0 0.00 0.00 0.00 60 997.0
20260507072448 33 0 0.0 0.0 0.00 0.00 0.00 59 996.0
20260507071926 33 0 0.0 0.0 0.00 0.00 0.00 59 996.0
20260507071404 33 0 0.0 0.0 0.00 0.00 0.00 60 996.0
20260507070841 33 0 0.0 0.0 0.00 0.00 0.00 59 997.0
20260507070319 33 0 0.0 0.0 0.00 0.00 0.00 59 996.0
20260507065757 33 0 0.0 0.0 0.00 0.00 0.00 59 996.0
20260507065235 33 0 0.0 0.0 0.00 0.00 0.00 59 996.0
20260507064713 33 0 0.0 0.0 0.00 0.00 0.00 59 996.0
20260507064150 33 0 0.0 0.0 0.00 0.00 0.00 59 996.0
20260507063628 33 0 0.0 0.0 0.00 0.00 0.00 59 996.0
20260507063106 33 0 0.0 0.0 0.00 0.00 0.00 59 996.0
20260507062544 33 0 0.0 0.0 0.00 0.00 0.00 59 996.0
20260507062022 33 0 0.0 0.0 0.00 0.00 0.00 59 996.0
20260507061501 33 0 0.0 0.0 0.00 0.00 0.00 59 996.0
20260507060939 33 0 0.0 0.0 0.00 0.00 0.00 59 996.0
20260507060415 33 0 0.0 0.0 0.00 0.00 0.00 60 996.0
20260507055853 34 0 0.0 0.0 0.00 0.00 0.00 58 996.0
20260507055331 34 0 0.0 0.0 0.00 0.00 0.00 58 996.0
20260507054808 34 0 0.0 0.0 0.00 0.00 0.00 58 996.0
20260507054246 33 0 0.0 0.0 0.00 0.00 0.00 60 997.0
20260507053724 34 0 0.0 0.0 0.00 0.00 0.00 58 997.0
20260507053202 32 0 0.0 0.0 0.00 0.00 0.00 62 997.0
20260507050904 33 0 0.0 0.0 0.00 0.00 0.00 59 997.0
20260507050342 34 0 0.0 0.0 0.00 0.00 0.00 59 997.0
20260507045820 34 0 0.0 0.0 0.00 0.00 0.00 59 997.0
20260507045257 33 0 0.0 0.0 0.00 0.00 0.00 59 997.0
20260507044735 33 0 0.0 0.0 0.00 0.00 0.00 61 997.0
20260507044213 33 0 0.0 0.0 0.00 0.00 0.00 59 997.0
20260507043651 33 0 0.0 0.0 0.00 0.00 0.00 59 997.0
20260507043130 33 0 0.0 0.0 0.00 0.00 0.00 61 997.0
20260507042607 33 0 0.0 0.0 0.00 0.00 0.00 59 997.0
20260507042045 33 0 0.0 0.0 0.00 0.00 0.00 59 997.0
20260507041523 33 0 0.0 0.0 0.00 0.00 0.00 59 998.0
20260507041001 32 0 0.0 0.0 0.00 0.00 0.00 62 998.0
20260507040439 33 0 0.0 0.0 0.00 0.00 0.00 59 998.0
20260507035917 33 0 0.0 0.0 0.00 0.00 0.00 59 998.0
20260507035355 33 0 0.0 0.0 0.00 0.00 0.00 59 998.0
20260507034833 33 0 0.0 0.0 0.00 0.00 0.00 59 998.0
20260507034311 33 0 0.0 0.0 0.00 0.00 0.00 59 998.0
20260507033749 33 0 0.0 0.0 0.00 0.00 0.00 59 998.0
20260507033227 33 0 0.0 0.0 0.00 0.00 0.00 61 998.0
20260507032704 33 0 0.0 0.0 0.00 0.00 0.00 61 998.0
20260507032142 33 0 0.0 0.0 0.00 0.00 0.00 59 998.0
20260507031620 33 0 0.0 0.0 0.00 0.00 0.00 60 998.0
20260507031058 33 0 0.0 0.0 0.00 0.00 0.00 61 998.0
20260507030535 33 0 0.0 0.0 0.00 0.00 0.00 60 998.0
20260507030013 33 0 0.0 0.0 0.00 0.00 0.00 59 998.0
20260507025450 33 0 0.0 0.0 0.00 0.00 0.00 59 999.0
20260507024928 34 0 0.0 0.0 0.00 0.00 0.00 57 999.0
20260507024406 34 0 0.0 0.0 0.00 0.00 0.00 57 999.0
20260507023844 33 0 0.0 0.0 0.00 0.00 0.00 59 999.0
20260507023322 33 0 0.0 0.0 0.00 0.00 0.00 60 999.0
20260507022800 33 0 0.0 0.0 0.00 0.00 0.00 59 999.0
20260507022238 33 0 0.0 0.0 0.00 0.00 0.00 59 999.0
20260507021716 33 0 0.0 0.0 0.00 0.00 0.00 59 999.0
20260507021153 33 0 0.0 0.0 0.00 0.00 0.00 59 999.0
20260507020631 33 0 0.0 0.0 0.00 0.00 0.00 60 999.0
20260507020108 32 0 0.0 0.0 0.00 0.00 0.00 61 999.0
20260507015546 32 0 0.0 0.0 0.00 0.00 0.00 61 999.0
20260507015024 32 0 0.0 0.0 0.00 0.00 0.00 61 999.0
20260507014502 32 0 0.0 0.0 0.00 0.00 0.00 61 999.0
20260507013940 33 0 0.0 0.0 0.00 0.00 0.00 59 999.0
20260507013418 32 0 0.0 0.0 0.00 0.00 0.00 61 999.0
20260507012856 32 0 0.0 0.0 0.00 0.00 0.00 61 999.0
20260507012334 34 0 0.0 0.0 0.00 0.00 0.00 58 999.0
20260507011812 33 0 0.0 0.0 0.00 0.00 0.00 58 999.0
20260507011249 33 0 0.0 0.0 0.00 0.00 0.00 59 1000.0
20260507010727 34 0 0.0 0.0 0.00 0.00 0.00 58 999.0
20260507010206 33 0 0.0 0.0 0.00 0.00 0.00 60 999.0
20260507005643 33 0 0.0 0.0 0.00 0.00 0.00 58 999.0
20260507005121 33 0 0.0 0.0 0.00 0.00 0.00 58 999.0
20260507004559 33 0 0.0 0.0 0.00 0.00 0.00 59 999.0
20260507004037 33 0 0.0 0.0 0.00 0.00 0.00 59 1000.0
20260507003515 33 0 0.0 0.0 0.00 0.00 0.00 59 1000.0
20260507002953 33 0 0.0 0.0 0.00 0.00 0.00 58 1000.0
20260507002431 33 0 0.0 0.0 0.00 0.00 0.00 59 1000.0
20260507001909 32 0 0.0 0.0 0.00 0.00 0.00 61 1000.0
20260507001347 33 0 0.0 0.0 0.00 0.00 0.00 60 1000.0
20260507000825 33 0 0.0 0.0 0.00 0.00 0.00 59 1000.0
20260507000303 33 0 0.0 0.0 0.00 0.00 0.00 59 1000.0
20260506235741 33 0 0.0 0.0 0.00 0.00 0.00 59 1000.0
20260506235219 33 0 0.0 0.0 0.00 0.00 0.00 59 1000.0
20260506234657 32 0 0.0 0.0 0.00 0.00 0.00 60 1000.0
20260506234135 32 0 0.0 0.0 0.00 0.00 0.00 59 1000.0
20260506233613 32 0 0.0 0.0 0.00 0.00 0.00 60 1000.0
20260506233051 32 0 0.0 0.0 0.00 0.00 0.00 62 1000.0
20260506232529 32 0 0.0 0.0 0.00 0.00 0.00 60 999.0
20260506232007 32 0 0.0 0.0 0.00 0.00 0.00 60 999.0
20260506231446 32 0 0.0 0.0 0.00 0.00 0.00 61 999.0
20260506230923 32 0 0.0 0.0 0.00 0.00 0.00 61 999.0
20260506230401 32 0 0.0 0.0 0.00 0.00 0.00 61 999.0
20260506225839 32 0 0.0 0.0 0.00 0.00 0.00 61 999.0
20260506225317 32 0 0.0 0.0 0.00 0.00 0.00 60 999.0
20260506224755 32 0 0.0 0.0 0.00 0.00 0.00 60 999.0
20260506224233 32 0 0.0 0.0 0.00 0.00 0.00 60 999.0
20260506223711 32 0 0.0 0.0 0.00 0.00 0.00 60 999.0
20260506223149 32 0 0.0 0.0 0.00 0.00 0.00 60 999.0
20260506222627 32 0 0.0 0.0 0.00 0.00 0.00 60 999.0
20260506222105 32 0 0.0 0.0 0.00 0.00 0.00 60 999.0
20260506221543 32 0 0.0 0.0 0.00 0.00 0.00 60 999.0
20260506221021 32 0 0.0 0.0 0.00 0.00 0.00 60 999.0
20260506220459 32 0 0.0 0.0 0.00 0.00 0.00 60 999.0
20260506215936 32 0 0.0 0.0 0.00 0.00 0.00 60 999.0
20260506215415 32 0 0.0 0.0 0.00 0.00 0.00 60 999.0
20260506214853 32 0 0.0 0.0 0.00 0.00 0.00 60 998.0
20260506214331 31 0 0.0 0.0 0.00 0.00 0.00 60 998.0
20260506213809 32 0 0.0 0.0 0.00 0.00 0.00 60 998.0
20260506213247 32 0 0.0 0.0 0.00 0.00 0.00 60 998.0
20260506212725 32 0 0.0 0.0 0.00 0.00 0.00 60 998.0
20260506212203 32 0 0.0 0.0 0.00 0.00 0.00 60 998.0
20260506211641 32 0 0.0 0.0 0.00 0.00 0.00 60 998.0
20260506211118 32 0 0.0 0.0 0.00 0.00 0.00 60 998.0
20260506210556 32 0 0.0 0.0 0.00 0.00 0.00 60 998.0
20260506210034 32 0 0.0 0.0 0.00 0.00 0.00 60 998.0
20260506205512 32 0 0.0 0.0 0.00 0.00 0.00 60 998.0
20260506204950 32 0 0.0 0.0 0.00 0.00 0.00 60 998.0
20260506204428 32 0 0.0 0.0 0.00 0.00 0.00 60 998.0
20260506203906 32 0 0.0 0.0 0.00 0.00 0.00 60 998.0
20260506203344 32 0 0.0 0.0 0.00 0.00 0.00 60 998.0
20260506202822 32 0 0.0 0.0 0.00 0.00 0.00 60 998.0
20260506202300 32 0 0.0 0.0 0.00 0.00 0.00 60 998.0
20260506201738 32 0 0.0 0.0 0.00 0.00 0.00 60 998.0
20260506201216 32 0 0.0 0.0 0.00 0.00 0.00 60 998.0
20260506200655 32 0 0.0 0.0 0.00 0.00 0.00 60 998.0
20260506200132 32 0 0.0 0.0 0.00 0.00 0.00 60 998.0
20260506195610 32 0 0.0 0.0 0.00 0.00 0.00 60 998.0
20260506195048 32 0 0.0 0.0 0.00 0.00 0.00 60 998.0
20260506194527 32 0 0.0 0.0 0.00 0.00 0.00 60 998.0
20260506194004 32 0 0.0 0.0 0.00 0.00 0.00 60 998.0
20260506193442 32 0 0.0 0.0 0.00 0.00 0.00 60 998.0
20260506192920 32 0 0.0 0.0 0.00 0.00 0.00 60 998.0
20260506192358 32 0 0.0 0.0 0.00 0.00 0.00 60 998.0
20260506185843 32 0 0.0 0.0 0.00 0.00 0.00 60 998.0
20260506185321 32 0 0.0 0.0 0.00 0.00 0.00 60 998.0
20260506182135 32 0 0.0 0.0 0.00 0.00 0.00 59 999.0